Weather in Kigali

Rwanda     1°56′58″S   30°05′30″E
temp.,
°C
wind,
m/s
gust,
m/s
humid.,
%
clouds,
%
prec.,
mm/h
press.,
hPa
HPBL,
m
21 april, wed
wed2123:00+15n1197100 0.0 101614
02:00+14nw1197100 0.0 101512
05:00+14s009871 0.6 101614
08:00+16s0196100 1.3 1018230
11:00+21wnw0177100 0.6 1016724
14:00+19e1292100 4.1 1013252
17:00+18wsw129667 0.1 1013123
20:00+17nnw009799 0.2 101512
22 april, thu
thu2223:00+15w0099100 0.1 101611
02:00+15wnw1199100 1.9 101529
05:00+15nw119868 0.3 101630
08:00+17wnw0192100 0.3 1018263
11:00+22se236985 0.8 1016941
14:00+22e237973 2.9 10121038
17:00+19ene269595 3.3 1013461
20:00+16sw119714 3.7 101414
23 april, fri
fri2323:00+15w1198100 0.0 101612
02:00+15nnw1198100 0.4 101514
05:00+14wnw1198100 0.9 101512
08:00+18nw1192100 0.9 1016207
11:00+22se1179100 1.8 1014796
14:00+23ese117543 4.3 1011904
17:00+20e239077 1.1 101081
20:00+17ssw009580 5.0 101311
24 april, sat
sat2423:00+16nnw109656 0.0 101411
02:00+16nnw119897 1.4 101312
05:00+15nw1198100 2.2 101420
08:00+18ne009488 4.1 1015174
11:00+22sse127897 2.4 1013840
14:00+22e118175 5.3 1010700
17:00+19e2293100 3.4 101045
20:00+17wnw1298100 6.9 101447
25 april, sun
sun2523:00+16w119889 0.7 101530
02:00+16w119897 1.8 101415
05:00+16s1299100 0.9 101579
08:00+16wnw1399100 7.4 1017164
11:00+21w2276100 0.6 1015615
14:00+21e118398 3.7 1011603
17:00+18e1296100 3.8 101340
20:00+17w119896 6.6 101535